Regional Weather Roundup
Issued by NWS

Current Version | Previous Version | Text Only | Print | Product List | Glossary Off
Versions: 1 2 3 4 5 6 7 8 9 10 11 12 13 14 15 16 17 18 19 20 21 22 23 24 25 26 27 28 29 30 31 32 33 34 35 36 37 38 39 40 41 42 43 44 45 46 47 48 49 50

000
ASUS44 KMEG 140810
RWRTN
TENNESSEE HOURLY STATE WEATHER ROUNDUP
NATIONAL WEATHER SERVICE MEMPHIS TN
300 AM CDT FRI MAY 14 2021

TNZ002-004-019-021-049-052-054-088>092-140900-
WEST TENNESSEE

CITY           SKY/WX    TMP DP  RH WIND       PRES   REMARKS
MEMPHIS INTL   CLEAR     55  40  56 NE5       30.28S
NWS MEMPHIS      N/A     54 N/A N/A MISG        N/A
JACKSON        CLEAR     43  41  93 CALM      30.29S
DYERSBURG      CLEAR     48  44  86 CALM      30.30S
SOMERVILLE     CLEAR     45  43  93 CALM      30.27R
COVINGTON      CLEAR     48  45  87 CALM      30.28S
UNION CITY     CLEAR     43  43 100 CALM      30.29R
BOLIVAR        CLEAR     43  41  93 CALM      30.27S
PARIS          CLEAR     46  41  81 NE3       30.29R
LEXINGTON      CLEAR     43  41  93 CALM      30.27S
SELMER         CLEAR     45  41  87 CALM      30.27S
SAVANNAH       PTCLDY    43  43 100 CALM      30.27R
$$

TNZ008-025-027-028-033-062-065-066-140900-
NORTH MIDDLE TENNESSEE

CITY           SKY/WX    TMP DP  RH WIND       PRES   REMARKS
NASHVILLE      CLEAR     47  39  74 CALM      30.29S
DICKSON          N/A     45  39  81 CALM      30.27S
PORTLAND       CLEAR     43  41  93 CALM      30.28S
CLARKSVILLE    CLEAR     44  41  89 CALM      30.29S
LEBANON        PTCLDY    43  41  93 CALM      30.26S
SMYRNA         CLEAR     45  41  86 CALM      30.29S
MURFREESBORO     N/A     46  41  81 CALM      30.26S
COOKEVILLE     PTCLDY    43  43 100 CALM      30.26S
LIVINGSTON     MOCLDY    50  36  57 N5        30.25S
CROSSVILLE     MOCLDY    43  38  82 CALM      30.26F
ROCKWOOD       CLEAR     45  34  65 CALM      30.25S
$$

TNZ061-075-076-078-094-096-097-140900-
SOUTH MIDDLE TENNESSEE

CITY           SKY/WX    TMP DP  RH WIND       PRES   REMARKS
LAWRENCEBURG   CLOUDY    43  41  93 CALM      30.26S
LEWISBURG      CLEAR     39  39 100 CALM      30.27S
FAYETTEVILLE   CLEAR     48  39  71 N6        30.27S
TULLAHOMA      CLEAR     41  37  87 CALM      30.25S
WINCHESTER     MOCLDY    45  43  93 CALM      30.25S
COLUMBIA       PTCLDY    43  43 100 CALM      30.26S
SHELBYVILLE    CLEAR     41  39  93 CALM      30.26S
$$

TNZ017-018-042-046-047-140900-
NORTHEAST TENNESSEE

CITY           SKY/WX    TMP DP  RH WIND       PRES   REMARKS
TRI CITIES     MOCLDY    46  40  79 CALM      30.26S
ELIZABETHTON   CLOUDY    48  39  71 CALM      30.25S
GREENEVILLE    MOCLDY    48  39  71 CALM      30.23F
$$

TNZ012-013-036-069-073-074-140900-
CENTRAL EAST TENNESSEE

CITY           SKY/WX    TMP DP  RH WIND       PRES   REMARKS
KNOXVILLE      PTCLDY    47  44  90 CALM      30.24R
OAK RIDGE      CLEAR     45  42  89 CALM      30.26S
DOWNTOWN KNOXV CLEAR     45  45 100 CALM      30.26R
GATLINBURG     PTCLDY    46  46 100 CALM      30.24S
MORRISTOWN     MOCLDY    48  41  76 CALM      30.23S
JACKSBORO      CLEAR     41  39  93 CALM      30.29S
$$

TNZ083-085-099-140900-
SOUTHEAST TENNESSEE

CITY           SKY/WX    TMP DP  RH WIND       PRES   REMARKS
CHATTANOOGA    CLEAR     50  46  86 CALM      30.25R
DAYTON         CLEAR     45  43  93 CALM      30.24S
$$

SKY/WX REPORTED AS FAIR MEANS FEW OR NO CLOUDS BELOW
12 THOUSAND FEET.




USA.gov is the U.S. government's official web portal to all federal, state and local government web resources and services.